Regional Weather Roundup
Issued by NWS

Home | Current Version | Previous Version | Graphics & Text | Print | Product List | Glossary Off
Versions: 1 2 3 4 5 6 7 8 9 10 11 12 13 14 15 16 17 18 19 20 21 22 23 24 25 26 27 28 29 30 31 32 33 34 35 36 37 38 39 40 41 42 43 44 45 46 47 48 49 50

000
ASUS43 KDMX 242006
RWRIA

WEATHER ROUNDUP FOR IOWA
NATIONAL WEATHER SERVICE DES MOINES IA
300 PM CDT SUN SEP 24 2017

NOTE: "FAIR" INDICATES FEW OR NO CLOUDS BELOW 12,000 FEET WITH NO
SIGNIFICANT WEATHER AND/OR OBSTRUCTIONS TO VISIBILITY.

* - THESE STATIONS ARE NOT NWS STATIONS...THUS NOT UNDER NWS
QUALITY CONTROL.  THEY ALSO DO NOT REPORT WEATHER SUCH
AS PRECIPITATION OR FOG.

IAZ001>003-012>014-020>022-031>034-043>046-242100-
   NORTHWEST IOWA

CITY           SKY/WX    TMP DP  RH WIND       PRES   REMARKS
CARROLL *      PTSUNNY   91  64  40 S18G25    29.90F HX  93
CHEROKEE *     MOSUNNY   84  62  47 S20G25    29.87F HX  85
DENISON *      SUNNY     84  64  51 S12G18    29.90F HX  86
LE MARS *      LGT RAIN  75  68  78 W17       29.87R
ORANGE CITY *  CLOUDY    84  68  58 SW18G26   29.87S HX  87
SHELDON *      PTSUNNY   82  68  61 S10G18    29.85F HX  85
SIOUX CITY     LGT RAIN  73  66  78 SW8       29.86F
SPENCER        CLOUDY    88  60  38 S20G30    29.88F HX  87
STORM LAKE *   MOSUNNY   88  63  42 S18G28    29.89F HX  88
$$

IAZ055>058-069>071-079>083-090>094-242100-
   SOUTHWEST IOWA

CITY           SKY/WX    TMP DP  RH WIND       PRES   REMARKS
ATLANTIC *     SUNNY     88  64  45 S13G21    29.90F HX  89
AUDUBON *      SUNNY     88  66  48 S8        29.92F HX  90
CLARINDA *     MOSUNNY   91  64  40 S13G20    29.92F HX  93
COUNCIL BLFS * PTSUNNY   86  66  51 S13G26    29.88F HX  88
CRESTON *      MOSUNNY   88  63  42 S15       29.95F HX  88
HARLAN  *      MOSUNNY   88  64  45 S14G24    29.92F HX  89
LAMONI         MOSUNNY   88  64  44 S12       29.95F HX  89
RED OAK *      MOSUNNY   90  64  43 S15G23    29.90F HX  91
SHENANDOAH *   CLOUDY    90  63  40 S15       29.90F HX  90
$$

IAZ047>049-059>061-072>074-084-242100-
   CENTRAL IOWA

CITY           SKY/WX    TMP DP  RH WIND       PRES   REMARKS
AMES           PTSUNNY   87  65  47 S13G20    29.93F HX  89
ANKENY *       MOSUNNY   90  63  40 SE13G22   29.94F HX  90
BOONE *        CLOUDY    88  63  42 S10G20    29.93S HX  88
CHARITON *     SUNNY     88  63  42 S14G22    29.95F HX  88
DES MOINES     MOSUNNY   89  62  40 S10       29.92F HX  89
GRINNELL*      MOSUNNY   88  61  39 S9        29.97F HX  88
KNOXVILLE *    MOSUNNY   90  61  37 S15G23    29.94F HX  89
MARSHALLTOWN   SUNNY     89  63  41 S17G23    29.94F HX  90
NEWTON *       MOSUNNY   90  63  40 S16       29.95F HX  90
PELLA *        SUNNY     91  58  32 SW12G18   29.96F HX  90
PERRY *          N/A     92  55  29 S13G21    29.92F HX  90
$$

IAZ004>006-015-016-023>025-035-036-242100-
   NORTH CENTRAL IOWA

CITY           SKY/WX    TMP DP  RH WIND       PRES   REMARKS
ALGONA *       MOSUNNY   91  61  35 S15G25    29.90F HX  91
CLARION *      MOSUNNY   90  61  37 S16G22    29.92F HX  89
ESTHERVILLE    PTSUNNY   85  62  46 SW14      29.88F HX  85
FORT DODGE *   MOSUNNY   89  61  38 SW17      29.91F HX  89
MASON CITY     MOSUNNY   90  60  36 S15G22    29.94F HX  89
FOREST CITY *    N/A     86  54  32 S12G22    29.93S HX  84
WEBSTER CITY * SUNNY     91  59  33 S10G23    29.90F HX  90
IOWA FALLS *     N/A     91  61  37 S13G21    29.95F HX  90
$$

IAZ007>011-017>019-026>030-037>042-050>054-066-242100-
   NORTHEAST IOWA

CITY           SKY/WX    TMP DP  RH WIND       PRES   REMARKS
CEDAR RAPIDS   MOSUNNY   90  62  39 S13G21    29.97F HX  90
CHARLES CITY * SUNNY     90  59  35 S16G22    29.95F HX  89
CLINTON *      MOSUNNY  N/A N/A N/A VRB7      30.00F
DECORAH *      MOSUNNY   88  63  42 S8G15     29.96S HX  88
DUBUQUE        SUNNY     86  64  47 S13       30.01F HX  87
MONTICELLO *   MOSUNNY   91  63  38 S10G17    29.98F HX  92
OELWEIN *      MOSUNNY   90  63  40 S13       29.97F HX  90
WATERLOO       PTSUNNY   87  60  40 S15       29.94F HX  87
$$

IAZ064-065-067-068-078-242100-
   EAST CENTRAL IOWA

CITY           SKY/WX    TMP DP  RH WIND       PRES   REMARKS
DAVENPORT      SUNNY     88  62  41 SW9       30.01F HX  88
IOWA CITY      MOSUNNY   91  64  40 S9        29.98F HX  92
MUSCATINE *    SUNNY     91  63  38 S10       29.97F HX  92
QUAD CITIES    MOSUNNY   90  61  37 SW9       29.98F HX  90
$$

IAZ062-063-075>077-085>089-095>099-242100-
   SOUTHEAST IOWA

CITY           SKY/WX    TMP DP  RH WIND       PRES   REMARKS
BURLINGTON     SUNNY     90  64  42 SE8       29.98F HX  91
FAIRFIELD *    SUNNY     90  61  37 S12G18    29.97F HX  89
FORT MADISON * MOSUNNY   91  63  38 S8        29.98F HX  92
KEOKUK *       SUNNY     91  61  35 SW12G18   29.97F HX  91
OSKALOOSA *      N/A     90  63  40 S12G18    29.97F HX  91
OTTUMWA        SUNNY     90  64  42 S15G22    29.97S HX  91
WASHINGTON *   MOSUNNY   90  64  43 S9G16     29.99F HX  91
$$

ABBREVIATIONS USED IN REMARKS
   TC - TEMPERATURES IN CELSIUS
  WCI - WIND CHILL INDEX
   HX - HEAT INDEX
  VSB - VISIBILITY
$$




USA.gov is the U.S. government's official web portal to all federal, state and local government web resources and services.